Weather History for Springfield, MO

Change the Weather History Date:

Wednesday, March 27, 2013

  Actual Average Record
Temperature  
Mean Temperature 39 °F 50 °F  
Max Temperature 53 °F 61 °F 82 °F (1910)
Min Temperature 24 °F 38 °F 12 °F (1913)
Degree Days  
Heating Degree Days 26 15  
Month to date heating degree days 681 521  
Since 1 July heating degree days 3979 4114  
Cooling Degree Days 0 0  
Month to date cooling degree days 0 0  
Year to date cooling degree days 0 0  
Moisture  
Dew Point 24 °F    
Average Humidity 58    
Maximum Humidity 81    
Minimum Humidity 35    
Precipitation  
Precipitation 0.00 in 0.13 in 3.00 in (1921)
Month to date precipitation 3.98 3.09  
Year to date precipitation 9.32 8.08  
Snow  
Snow 0.00 in - - ()
Month to date snowfall 4.3  
Since 1 July snowfall 11.3  
Snow Depth 0.00 in    
Sea Level Pressure  
Sea Level Pressure 30.29 in    
Wind  
Wind Speed 12 mph (SE)    
Max Wind Speed 18 mph    
Max Gust Speed -    
Visibility 10 miles    
Events      
T = Trace of Precipitation, MM = Missing Value Source: NWS Daily Summary

Daily Weather History Graph

Daily Weather History Graph

Search for Another Location

Airport:

Trip Planner

Search our weather history database for the weather conditions in past years. The results will help you decide how hot, cold, wet, or windy it might be!

Date:

Astronomy

Mar. 27, 2013 Rise Set
Actual Time 7:06 AM CDT 7:31 PM CDT
Civil Twilight 6:40 AM CDT 7:58 PM CDT
Nautical Twilight 6:09 AM CDT 8:28 PM CDT
Astronomical Twilight 5:38 AM CDT 9:00 PM CDT
Moon 8:14 PM CDT (3/27) 6:58 AM CDT (3/27)
Length of Visible Light 13h 17m
Length of Day
12h 25m
Full, 100% of the Moon is Illuminated
Mar 27
Full
Apr 2
Last Quarter
Apr 10
New
Apr 18
First Quarter
Apr 25
Full

Hourly Weather History & Observations

Time (CDT) Temp. Windchill Dew Point Humidity Pressure Visibility Wind Dir Wind Speed Gust Speed Precip Events Conditions
12:52 AM 25.0 °F 20.7 °F 19.9 °F 81% 30.35 in 10.0 mi SSE 3.5 mph - N/A   Clear
1:52 AM 26.1 °F - 21.9 °F 84% 30.33 in 10.0 mi North - - N/A   Clear
2:52 AM 25.0 °F 16.3 °F 19.9 °F 81% 30.33 in 10.0 mi SE 8.1 mph - N/A   Clear
3:52 AM 24.1 °F - 19.9 °F 84% 30.32 in 10.0 mi North - - N/A   Clear
4:52 AM 27.0 °F 17.3 °F 21.9 °F 81% 30.31 in 10.0 mi SSE 10.4 mph - N/A   Clear
5:52 AM 27.0 °F - 21.9 °F 81% 30.31 in 10.0 mi North - - N/A   Clear
6:52 AM 28.0 °F 19.3 °F 21.9 °F 78% 30.33 in 10.0 mi SSE 9.2 mph - N/A   Scattered Clouds
7:52 AM 30.0 °F 21.1 °F 23.0 °F 75% 30.34 in 10.0 mi SSE 10.4 mph - N/A   Mostly Cloudy
8:52 AM 35.1 °F 25.9 °F 25.0 °F 67% 30.36 in 10.0 mi SSE 13.8 mph - N/A   Mostly Cloudy
9:52 AM 37.0 °F 28.5 °F 25.0 °F 62% 30.35 in 10.0 mi SSE 13.8 mph - N/A   Partly Cloudy
10:52 AM 41.0 °F 33.9 °F 26.1 °F 55% 30.34 in 10.0 mi SSE 12.7 mph - N/A   Scattered Clouds
11:52 AM 44.1 °F 37.7 °F 27.0 °F 51% 30.34 in 10.0 mi SSE 12.7 mph - N/A   Clear
12:52 PM 46.9 °F - 25.0 °F 42% 30.32 in 10.0 mi SSE 11.5 mph - N/A   Mostly Cloudy
1:52 PM 48.0 °F - 24.1 °F 39% 30.30 in 10.0 mi SE 11.5 mph - N/A   Mostly Cloudy
2:52 PM 48.9 °F - 25.0 °F 39% 30.27 in 10.0 mi ESE 10.4 mph - N/A   Overcast
3:52 PM 51.1 °F - 26.1 °F 38% 30.23 in 10.0 mi SE 15.0 mph - N/A   Scattered Clouds
4:52 PM 51.1 °F - 26.1 °F 38% 30.21 in 10.0 mi ESE 16.1 mph - N/A   Partly Cloudy
5:52 PM 52.0 °F - 26.1 °F 37% 30.21 in 10.0 mi ESE 16.1 mph - N/A   Mostly Cloudy
6:52 PM 51.1 °F - 25.0 °F 36% 30.20 in 10.0 mi SE 11.5 mph - N/A   Clear
7:52 PM 46.0 °F 42.5 °F 26.1 °F 46% 30.22 in 10.0 mi East 6.9 mph - N/A   Mostly Cloudy
8:52 PM 46.0 °F 42.5 °F 27.0 °F 47% 30.24 in 10.0 mi East 6.9 mph - N/A   Overcast
9:52 PM 46.9 °F - 27.0 °F 46% 30.24 in 10.0 mi SE 10.4 mph - N/A   Overcast
10:52 PM 46.9 °F - 28.0 °F 48% 30.23 in 10.0 mi North - - N/A   Overcast
11:52 PM 48.0 °F - 28.9 °F 48% 30.23 in 10.0 mi North - - N/A   Overcast